www.pogodaiklimat.ru

Погода и климат >> Архив погоды >> Тунис >> Кебили


ПОГОДА в Кебили

  • Прогноз погоды в Кебили
  • Монитор погоды в Кебили

АРХИВ ПОГОДЫ в Кебили

Время (UTC), дата Ветер
(напр.,м/с)
 
Видим.   Явления Облачность Т
(С)
Тd
(С)
f
(%)
Тe
(С)
Тes
(С)
Комфортность P
(гПа)
Po
(гПа)
Тmin
(С)
Tmax
(С)
R
(мм)
R24
(мм)
S
(см)
03 12.09 СВ 10-15
{19}
н/о н/о +25.2 +21.7 81 +32 +32 очень
душно
1015.1 1010.2
06 12.09 СВ 12 6000 м 5/3 900 м
[Cu med, cong Ci sp]
+25.3 +23.4 89 +34 +34 очень
душно
1016.5 1011.6 +25.2
09 12.09 СВ 12 3000 м пыльный позёмок 8/5 900 м
[Cu med, cong Ci sp]
+28.5 +23.4 74 +39 +39 очень
душно
1018.7 1013.8
12 12.09 СВ 12 3000 м пыльный позёмок 8/5 900 м
[Cu med, cong Ci sp]
+32.7 +24.5 62 +45 +45 опасность
перегрева
1018.9 1014.1
15 12.09 СВ 9 3000 м пыльный позёмок 10/10 900 м
[Cu Sc]
+31.9 +24.2 64 +44 +44 опасность
перегрева
1019.7 1014.9
18 12.09 СВ 7 1000 м в посл. час дождь 10/10 900 м
[Cu Sc]
+27.1 +25.1 89 +39 +39 очень
душно
1021.9 1017.0 +33.7 1
21 12.09 СВ 9-14
{19}
н/о н/о +26.4 +24.6 90 +37 +37 очень
душно
1020.2 1015.3
00 13.09 СВ 12-17
{19}
н/о н/о +25.8 +24.6 93 +36 +36 очень
душно
1020.2 1015.3
03 13.09 СВ 9-14
{19}
н/о н/о +25.2 +24.2 94 +35 +35 очень
душно
1020.3 1015.4
06 13.09 СВ 8 8000 м 5/3 600 м
[St Ci sp]
+24.7 +24.0 96 +34 +34 очень
душно
1021.7 1016.7 +24.4 1
09 13.09 СВ 8 10 км 3/0
[Ci sp]
+28.6 +24.8 80 +41 +43 опасность
перегрева
1022.6 1017.7
12 13.09 СВ 7 12 км 3/0
[Ci sp]
+33.6 +23.6 56 +45 +49 опасность
перегрева
1021.5 1016.7
18 13.09 СВ 8 10 км ясно +28.9 +23.3 72 +39 +39 очень
душно
1020.9 1016.0 +34.3
21 13.09 СВ 6-10
{14}
н/о н/о +26.4 +23.3 83 +36 +36 очень
душно
1022.2 1017.3
00 14.09 СВ 9-13
{14}
н/о н/о +25.2 +23.1 88 +34 +34 очень
душно
1021.5 1016.5
03 14.09 СВ 8-11
{13}
н/о н/о +24.4 +22.8 91 +32 +32 очень
душно
1021.2 1016.2
06 14.09 СВ 4 8000 м ясно +23.6 +22.8 95 +31 +31 очень
душно
1022.2 1017.2 +23.6
09 14.09 СВ 4 12 км ясно +27.8 +22.7 74 +37 +44 очень
душно
1023.0 1018.1
12 14.09 СВ 5 12 км ясно +33.2 +19.7 45 +39 +47 очень
душно
1021.4 1016.6
15 14.09 СВ 5 12 км 3/0
[Ci sp]
+34.3 +18.8 40 +39 +42 очень
душно
1019.8 1015.0
18 14.09 СВ 8 12 км ясно +30.2 +22.4 63 +39 +39 очень
душно
1015.2 1009.4 +34.8
21 14.09 СВ 7-10
{13}
н/о н/о +26.7 +19.6 65 +32 +32 очень
душно
1021.2 1016.3
00 15.09 СВ 3-4
{13}
н/о н/о +24.7 +19.8 74 +30 +30 очень
душно
1021.0 1016.0
03 15.09 СВ 1-2
{5}
н/о н/о +23.1 +19.3 79 +29 +29 очень
душно
1021.4 1016.4
06 15.09 С 2 12 км 4/0
[Ci sp]
+23.2 +20.7 86 +31 +31 очень
душно
1023.0 1018.0 +21.9
09 15.09 В 5 12 км 5/0
[Ac cast Ci sp]
+27.7 +17.8 55 +32 +36 очень
душно
1024.0 1019.1
12 15.09 В 2 12 км ясно +31.6 +17.1 42 +35 +51 опасность
солнечного
удара
1021.4 1016.5
15 15.09 В 2 12 км ясно +33.5 +17.6 39 +37 +43 очень
душно
1019.0 1014.2
18 15.09 СВ 6 12 км ясно +30.4 +18.4 49 +35 +35 очень
душно
1019.1 1014.3 +33.7
21 15.09 СВ 5-8
{12}
н/о н/о +26.0 +20.3 71 +32 +32 очень
душно
1019.9 1015.0
00 16.09 СВ 2-3
{12}
н/о н/о +24.4 +19.5 74 +30 +30 очень
душно
1019.7 1014.7
03 16.09 СВ 2-2
{3}
н/о н/о +23.1 +18.2 74 +29 +29 очень
душно
1019.1 1014.1
06 16.09 В 2 12 км ясно +22.1 +17.0 73 +27 +27 душно 1019.1 1014.1 +21.7
09 16.09 ЮВ 3 12 км ясно +28.9 +17.1 49 +33 +41 очень
душно
1019.7 1014.8
12 16.09 ЮЗ 2 12 км ясно +33.1 +16.0 36 +36 +51 опасность
солнечного
удара
1017.7 1012.9
15 16.09 З 3 12 км ясно +34.3 +16.6 35 +37 +42 очень
душно
1015.8 1011.0
18 16.09 СЗ 2-3
{6}
12 км 3/3 900 м
[Cu med, cong]
+31.6 +15.5 38 +34 +34 душно 1015.9 1011.1 +35.0
21 16.09 СВ 1-2
{2}
н/о н/о +26.4 +15.4 51 +29 +29 жарко 1016.6 1011.7
00 17.09 СВ 5-9
{10}
н/о н/о +26.5 +19.4 65 +32 +32 очень
душно
1016.7 1011.8
03 17.09 С 4-6
{7}
н/о н/о +25.2 +19.1 69 +30 +30 душно 1015.8 1010.9
06 17.09 В 2 12 км ясно +23.6 +18.5 73 +28 +28 душно 1016.7 1011.7 +23.6
09 17.09 ЮВ 1 12 км ясно +31.4 +17.7 44 +36 +47 очень
душно
1017.4 1012.5
12 17.09 ЮВ 2 12 км ясно +35.9 +18.5 36 +40 +55 опасность
солнечного
удара
1015.9 1011.1
15 17.09 ЮЗ 2 12 км 4/0
[Ci sp]
+36.8 +17.4 32 +40 +45 очень
душно
1013.8 1009.0
06 18.09 ЮВ 2 12 км 5/0
[Ac cast Ci sp]
+25.4 +21.7 80 +33 +33 очень
душно
1015.1 1010.2 +25.2
09 18.09 СВ 3 12 км 6/4 900 м
[Cu med, cong Ci sp]
+33.6 +19.7 44 +39 +44 очень
душно
1016.3 1011.5
12 18.09 Ю 3 12 км 6/3 900 м
[Cu med, cong Ci sp]
+37.7 +18.2 32 +41 +49 опасность
перегрева
1015.3 1010.6
15 18.09 З 5 12 км 6/4 900 м
[Cu med, cong Ci sp]
+38.1 +15.8 27 +40 +41 очень
душно
1013.5 1008.8
18 18.09 З 3 12 км 8/8 900 м
[Cu Sc]
+34.8 +13.6 28 +36 +36 душно 1013.8 1009.0 +38.5
21 18.09 СВ 9-14
{16}
н/о н/о +30.2 +17.3 46 +34 +34 очень
душно
1016.5 1011.6
00 19.09 СВ 5-8
{16}
н/о н/о +30.0 +14.5 39 +32 +32 жарко 1015.1 1010.2

 

Местоположение метеостанции Кебили (Тунис): широта 33.70 долгота 8.97 высота над уровнем моря 46 м.

В архиве по умолчанию представлена погода в Кебили за последнюю неделю. Архивные данные за месяц целиком и за предыдущие месяцы, начиная с января 2011 года, Вы можете получить, выбрав интересующий диапазон дат из раскрывающегося списка и нажав кнопку "Ввод!".


*Определитесь, кто Вы:
робот инопланетянин человек

Внимание! Время в таблицах - всемирное. Для получения местного времени необходимо прибавить поправку, которая равна 1 ч.

Смотрите также архив погоды в соседних городах и на ближайших метеорологических станциях:

Погода в Таузаре (Тунис) (78 км)
Погода в Гафсе (Тунис) (81 км)
Погода в Габесе (Тунис) (88 км)
Погода в Меденине (Тунис) (145 км)
Погода в Сиди Бузид (Тунис) (152 км)
Погода в Татуине (Тунис) (163 км)
Погода в Аэропорту Джерба-Зарзис (Тунис) (167 км)
Погода в Кассерине (Тунис) (168 км)
Погода в Сфаксе (Тунис) (194 км)
Погода в Ремаде (Тунис) (203 км)

Пояснения к столбцам:

Ветер - указаны скорость ветра в м/с - средняя за 10 мин, порывы в срок и между сроками (в фигурных скобках) и направление, откуда дует ветер: С - северный, СВ - северо-восточный, В - восточный, ЮВ - юго-восточный, Ю - южный, ЮЗ - юго-западный, З - западный, СЗ - северо-западный.
Видимость - горизонтальная дальность видимости в метрах или километрах. При видимости от 1 до 10 км при отсутствии осадков обычно наблюдается дымка, при ухудшении видимости до 1 км и менее - туман. В сухую погоду видимость может ухудшаться дымом, пылью или мглою.
Явления - указаны атмосферные явления, наблюдавшиеся в срок или в последний час перед сроком; фигурными скобками обозначены явления, наблюдавшиеся между сроками (за 1-3 часа до срока); квадратными скобками обозначены град или гололедные отложения с указанием их диаметра в мм.
Облачность - указаны через наклонную черту общая и нижняя облачность в баллах и высота нижней границы облаков в метрах; квадратными скобками обозначены формы облаков: Ci - перистые, Cs - перисто-слоистые, Cc - перисто-кучевые, Ac - высококучевые, As - высокослоистые, Sc - слоисто-кучевые, Ns - слоисто-дождевые, Cu - кучевые, Cb - кучево-дождевые. Подробнее классификацию облаков см. в Атласе облаков (PDF).
T - Температура воздуха - температура, измеренная на высоте 2 м над землей.
Td - Температура точки росы - температура, при понижении до которой содержащийся в воздухе водяной пар достигнет насыщения.
f - Относительная влажность воздуха - влажноcть воздуха, измеренная на высоте 2 м над землей.
Te - Эффективная температура - температура, которую ощущает одетый по сезону человек в тени. Характеристика душности погоды. При расчете учитывается влияние влажности воздуха и скорости ветра на теплоощущения человека.
Tes - Эффективная температура на солнце - температура, которую ощущает человек, с поправкой на солнечный нагрев. Характеристика знойности погоды. Зависит от высоты солнца над горизонтом, облачности и скорости ветра. Ночью, в пасмурную погоду, а также при ветре 12 м/с и более поправка равна нулю.
P - Атмосферное давление - приведенное к уровню моря атмосферное давление.
Po - Атмосферное давление - измеренное на уровне метеостанции атмосферное давление.
Tmin - Минимальная температура - минимум температуры воздуха на высоте 2 м над землей.
Tmax - Максимальная температура - максимум температуры воздуха на высоте 2 м над землей.
R - Количество осадков - Количество выпавших осадков за период времени, мм. При наведении курсора мыши на число - период времени, за который выпало указанное количество осадков.
R24 - Количество осадков - Количество выпавших осадков за 24 часа, мм.
S - Снежный покров - Высота снежного покрова, см. При наведении курсора мыши на число - состояние снежного покрова и степень покрытия местности в баллах.